User: anonymous   Login
Location: Newark
(53.5596°N, 1.2370°W)
Time: 00:13:50
(UTC+00:00)
Language:

CUTE-I - Orbit

View from above orbital plane
View from above orbital plane
View from above satellite
View from above satellite

Ground track
Ground track

The orbit data is extracted from the following two-line orbital elements,

1 27844U 03031E   19346.80332912  .00000041  00000-0  38320-4 0  9998
2 27844  98.6835 352.3663 0008996 235.3035 124.7296 14.22210412853463
Epoch (UTC): 12 December 2019 19:16:47
Eccentricity: 0.0008996
inclination: 98.6835°
perigee height: 811 km
apogee height: 824 km
right ascension of ascending node: 352.3663°
argument of perigee: 235.3035°
revolutions per day: 14.22210412
mean anomaly at epoch: 124.7296°
orbit number at epoch: 85346

The dashed part of the orbit path shows where the satellite is in the earth's shadow,  

DLR